This demonstration page uses our WeatherBlox Daily Observations layout. Learn more.

Hourly Observations for July 13, 2020

Temp ( °F °C ) Dew Point ( °F °C ) Humidity (%) Winds ( mph kmh ) Pressure ( in mb ) Visibility ( mi km ) Precip ( " mm )
12:15 am 00:15 Clear 70 21 65 18.1 84 84 SE 9 15 29.83 1010 10 16.0934 0 0
12:35 am 00:35 Clear 69 20.7 64 18 85 85 SSE 9 15 29.83 1010 10 16.0934 0 0
12:55 am 00:55 Clear 69 20.5 64 17.8 85 85 SSE 8 13 29.83 1010 10 16.0934 0 0
1:15 am 01:15 Clear 68 20.2 64 17.8 86 86 SE 9 15 29.83 1010 10 16.0934 0 0
1:35 am 01:35 Clear 68 20.2 64 17.6 85 85 SSE 8 13 29.83 1010 10 16.0934 0 0
1:55 am 01:55 Clear 68 20 64 17.5 86 86 SSE 7 11 29.81 1009 10 16.0934 0 0
2:15 am 02:15 Clear 67 19.5 63 17.4 88 88 SE 8 13 29.81 1010 10 16.0934 0 0
2:35 am 02:35 Clear 67 19.3 63 17.3 88 88 SSE 8 13 29.82 1010 10 16.0934 0 0
2:55 am 02:55 Clear 67 19.3 63 17.1 87 87 SSE 8 13 29.81 1010 10 16.0934 0 0
3:15 am 03:15 Clear 66 19.1 63 17 88 88 SSE 7 11 29.82 1010 10 16.0934 0 0
3:35 am 03:35 Clear 66 18.9 63 17 89 89 SSE 6 9 29.82 1010 10 16.0934 0 0
3:55 am 03:55 Clear 66 19.1 63 17.1 88 88 SSE 7 11 29.82 1010 10 16.0934 0 0
4:15 am 04:15 Clear 66 19 63 17 88 88 SSE 5 7 29.82 1010 10 16.0934 0 0
4:35 am 04:35 Clear 65 18.5 63 17 91 91 SSE 3 6 29.81 1009 10 16.0934 0 0
4:55 am 04:55 Clear 65 18.2 62 16.7 91 91 S 3 6 29.81 1010 10 16.0934 0 0
5:15 am 05:15 Clear 65 18.5 62 16.8 90 90 S 6 9 29.82 1010 10 16.0934 0 0
5:35 am 05:35 Clear 65 18.5 62 16.8 90 90 S 7 11 29.81 1009 10 16.0934 0 0
5:55 am 05:55 Clear 64 18 62 16.5 91 91 S 6 9 29.79 1009 10 16.0934 0 0
6:15 am 06:15 Clear 65 18.1 62 16.7 92 92 S 8 13 29.81 1010 10 16.0934 0 0
6:35 am 06:35 Sunny 65 18.4 62 16.7 90 90 S 8 13 29.81 1010 10 16.0934 0 0
6:55 am 06:55 Sunny 66 18.8 62 16.7 88 88 S 10 17 29.81 1009 10 16.0934 0 0
7:15 am 07:15 Sunny 67 19.5 63 17 86 86 S 9 15 29.8 1009 10 16.0934 0 0
7:35 am 07:35 Sunny 68 20.2 63 17.1 82 82 S 9 15 29.8 1009 10 16.0934 0 0
7:55 am 07:55 Sunny 70 21 63 17.3 80 80 S 10 17 29.79 1009 10 16.0934 0 0
8:15 am 08:15 Sunny 71 21.9 64 17.7 77 77 SSW 10 17 29.79 1009 10 16.0934 0 0
8:35 am 08:35 Sunny 73 22.7 63 17.4 72 72 SSW 9 15 29.8 1009 10 16.0934 0 0
8:55 am 08:55 Sunny 74 23.5 63 17.2 68 68 SSW 13 20 29.78 1008 10 16.0934 0 0
9:15 am 09:15 Sunny 75 24.1 63 17.3 66 66 SSW 10 17 29.78 1009 10 16.0934 0 0
9:35 am 09:35 Sunny 77 24.8 64 17.5 64 64 S 9 15 29.77 1008 10 16.0934 0 0
9:55 am 09:55 Sunny 78 25.6 63 17.4 61 61 S 14 22 29.76 1008 10 16.0934 0 0
10:15 am 10:15 Sunny 80 26.4 63 17.1 57 57 S 13 20 29.75 1007 10 16.0934 0 0
10:35 am 10:35 Sunny 80 26.9 64 17.8 58 58 S 13 20 29.74 1007 10 16.0934 0 0
10:55 am 10:55 Sunny 81 27.4 63 17 53 53 S 16 26 29.74 1007 10 16.0934 0 0
11:15 am 11:15 Sunny 82 28 63 17.3 52 52 SSW 13 20 29.73 1007 10 16.0934 0 0
11:35 am 11:35 Sunny 83 28.6 63 17 49 49 SSW 15 24 29.73 1007 10 16.0934 0 0
11:55 am 11:55 Sunny 84 29.1 62 16.8 47 47 S 18 30 29.72 1006 10 16.0934 0 0
12:15 pm 12:15 Sunny 85 29.4 62 16.8 47 47 SSW 18 30 29.71 1006 10 16.0934 0 0
12:35 pm 12:35 Sunny 86 29.9 62 16.7 45 45 S 18 30 29.7 1006 10 16.0934 0 0
12:55 pm 12:55 Sunny 86 30.2 62 16.7 44 44 SSW 20 31 29.7 1006 10 16.0934 0 0
1:15 pm 13:15 Sunny 87 30.6 63 17.1 44 44 S 18 30 29.68 1005 10 16.0934 0 0
1:35 pm 13:35 Sunny 88 30.9 64 17.9 46 46 S 14 22 29.68 1005 10 16.0934 0 0
1:55 pm 13:55 Sunny 89 31.5 65 18.4 46 46 S 16 26 29.68 1005 10 16.0934 0 0
2:15 pm 14:15 Sunny 89 31.6 64 18 44 44 S 15 24 29.67 1005 10 16.0934 0 0
2:35 pm 14:35 Sunny 89 31.8 65 18.4 45 45 S 16 26 29.67 1005 10 16.0934 0 0
2:55 pm 14:55 Sunny 90 32.4 65 18.4 43 43 S 13 20 29.67 1005 10 16.0934 0 0
3:15 pm 15:15 Sunny 91 32.5 66 18.7 44 44 S 12 19 29.66 1004 10 16.0934 0 0
3:35 pm 15:35 Sunny 91 32.8 67 19.2 45 45 S 13 20 29.65 1004 10 16.0934 0 0
3:55 pm 15:55 Sunny 92 33.1 67 19.3 44 44 S 12 19 29.64 1004 10 16.0934 0 0
4:15 pm 16:15 Sunny 92 33.3 67 19.4 44 44 S 15 24 29.62 1003 10 16.0934 0 0
4:35 pm 16:35 Sunny 92 33.6 68 19.9 44 44 S 14 22 29.62 1003 10 16.0934 0 0
4:55 pm 16:55 Sunny 93 33.7 68 20.1 45 45 S 12 19 29.61 1003 10 16.0934 0 0
5:15 pm 17:15 Sunny 93 33.7 68 20 45 45 S 13 20 29.61 1003 10 16.0934 0 0
5:35 pm 17:35 Sunny 93 33.7 68 20.2 45 45 SSE 12 19 29.6 1002 10 16.0934 0 0
5:55 pm 17:55 Sunny 91 33 69 20.3 47 47 SSE 9 15 29.61 1003 10 16.0934 0 0
6:15 pm 18:15 Sunny 92 33.3 69 20.3 46 46 SSE 12 19 29.6 1002 10 16.0934 0 0
6:35 pm 18:35 Sunny 91 32.7 70 20.9 50 50 SSE 10 17 29.59 1002 10 16.0934 0 0
6:55 pm 18:55 Sunny 89 31.5 70 21.1 54 54 SSE 13 20 29.59 1002 10 16.0934 0 0
7:15 pm 19:15 Sunny 90 32 69 20.8 52 52 SSE 13 20 29.58 1002 10 16.0934 0 0
7:35 pm 19:35 Sunny 87 30.5 68 20.1 54 54 SSE 14 22 29.58 1002 10 16.0934 0 0
7:55 pm 19:55 Sunny 86 29.8 68 20.2 56 56 SSE 10 17 29.6 1002 10 16.0934 0 0
8:15 pm 20:15 Sunny 85 29.4 68 20.2 58 58 SSE 9 15 29.62 1003 10 16.0934 0 0
8:35 pm 20:35 Sunny 84 28.9 68 20.1 59 59 SSE 9 15 29.64 1004 10 16.0934 0 0
8:55 pm 20:55 Sunny 83 28.3 69 20.3 62 62 SSE 9 15 29.65 1004 10 16.0934 0 0
9:15 pm 21:15 Clear 82 27.6 69 20.5 65 65 SSE 8 13 29.68 1005 10 16.0934 0 0
9:35 pm 21:35 Clear with Nearby Thunderstorms 81 27.3 69 20.8 68 68 SSE 12 19 29.66 1004 10 16.0934 0 0
9:55 pm 21:55 Clear 81 27.3 69 20.8 68 68 SSE 9 15 29.67 1005 10 16.0934 0 0
10:15 pm 22:15 Partly Cloudy with Thunderstorms 82 27.6 69 20.5 65 65 S 9 15 29.69 1005 10 16.0934 0 0
10:35 pm 22:35 Partly Cloudy with Thunderstorms 78 25.8 62 16.7 57 57 NW 24 39 29.76 1008 10 16.0934 0 0
10:55 pm 22:55 Cloudy with Nearby Thunderstorms 72 22 62 16.9 73 73 NW 14 22 29.82 1010 10 16.0934 0 0
11:15 pm 23:15 Cloudy 71 21.5 64 17.7 79 79 NW 7 11 29.84 1010 10 16.0934 0 0
11:35 pm 23:35 Cloudy with Light Thunderstorms 70 21.2 65 18.1 83 83 NNE 6 9 29.84 1010 10 16.0934 0 0
11:55 pm 23:55 Cloudy with Thunderstorms 70 21 66 18.9 88 88 WNW 6 9 29.86 1011 10 16.0934 0.01 0.254

Powered by AerisWeather